Regional Weather Roundup
Issued by NWS

Home | Current Version | Previous Version | Text Only | Print | Product List | Glossary On
Versions: 1 2 3 4 5 6 7 8 9 10 11 12 13 14 15 16 17 18 19 20 21 22 23 24 25 26 27
000
ASUS43 KDMX 192007
RWRIA

WEATHER ROUNDUP FOR IOWA
NATIONAL WEATHER SERVICE DES MOINES IA
300 PM CDT SAT APR 19 2014

NOTE: "FAIR" INDICATES FEW OR NO CLOUDS BELOW 12,000 FEET WITH NO
SIGNIFICANT WEATHER AND/OR OBSTRUCTIONS TO VISIBILITY.

* - THESE STATIONS ARE NOT NWS STATIONS...THUS NOT UNDER NWS
QUALITY CONTROL.  THEY ALSO DO NOT REPORT WEATHER SUCH
AS PRECIPITATION OR FOG.

IAZ001>003-012>014-020>022-031>034-043>046-192100-
   NORTHWEST IOWA

CITY           SKY/WX    TMP DP  RH WIND       PRES   REMARKS
CARROLL *      SUNNY     79  43  27 S26G36    30.00F
CHEROKEE *     PTSUNNY   75  46  35 SW18G26   29.98F
DENISON *      PTSUNNY   77  43  29 S21G30    29.99F
LE MARS *      CLOUDY    75  48  38 SW15G22   29.98S
ORANGE CITY *  SUNNY     73  45  35 SW10G18   29.98F
SHELDON *      PTSUNNY   72  46  40 SW17      29.98S
SIOUX CITY     CLOUDY    77  47  34 SW13      29.97F
SPENCER        PTSUNNY   76  46  34 SW23G31   29.99S
STORM LAKE *   MOSUNNY   77  45  31 S20G30    30.00F
$$

IAZ055>058-069>071-079>083-090>094-192100-
   SOUTHWEST IOWA

CITY           SKY/WX    TMP DP  RH WIND       PRES   REMARKS
ATLANTIC *     SUNNY     77  43  29 S18G29    30.01F
AUDUBON *      SUNNY     79  30  17 S20G25    30.03F
CLARINDA *     SUNNY     77  43  29 S22G31    30.04F
COUNCIL BLFS * PTSUNNY   79  46  31 S18G26    29.99F
CRESTON *      SUNNY     75  43  31 S28G35    30.06F
HARLAN  *      MOSUNNY   77  43  29 S24G30    30.03F
LAMONI         PTSUNNY   74  43  32 S14G29    30.09F
RED OAK *      SUNNY     77  43  29 S26G35    30.02F
SHENANDOAH *   SUNNY     79  43  27 S22G31    30.03F
$$

IAZ047>049-059>061-072>074-084-192100-
   CENTRAL IOWA

CITY           SKY/WX    TMP DP  RH WIND       PRES   REMARKS
AMES           PTSUNNY   74  43  32 S23G31    30.06F
ANKENY *       SUNNY     75  43  31 S18G29    30.06F
CHARITON *     SUNNY     73  45  35 S18G29    30.10F
DES MOINES     CLOUDY    77  44  30 S21G28    30.08F
GRINNELL*      CLOUDY    73  43  33 S24       30.11F
KNOXVILLE *    SUNNY     75  43  31 S17G29    30.09F
MARSHALLTOWN   PTSUNNY   74  44  34 S21G28    30.08F
NEWTON *       SUNNY     75  43  31 S20G28    30.09F
PELLA *        CLOUDY    77  45  31 S15G24    30.11F
PERRY *          N/A     77  36  22 S23G31    30.04S
$$

IAZ004>006-015-016-023>025-035-036-192100-
   NORTH CENTRAL IOWA

CITY           SKY/WX    TMP DP  RH WIND       PRES   REMARKS
ALGONA *       PTSUNNY   77  43  29 SW23G33   30.00S
CLARION *      MOSUNNY   77  43  29 S25G38    30.02S
ESTHERVILLE    PTSUNNY   75  47  36 SW28G36   29.98S
FORT DODGE *   MOSUNNY   79  46  31 S20G32    30.03S
FOREST CITY *  MOSUNNY   73  43  33 S21G31    30.02F
IOWA FALLS *     N/A     72  43  35 S25       30.06F
$$

IAZ007>011-017>019-026>030-037>042-050>054-066-192100-
   NORTHEAST IOWA

CITY           SKY/WX    TMP DP  RH WIND       PRES   REMARKS
CEDAR RAPIDS   CLOUDY    72  40  31 SE16G26   30.13F
CHARLES CITY * SUNNY     70  43  37 S22G31    30.08F
CLINTON *      MOSUNNY   70  36  28 S17       30.24F
DECORAH *      SUNNY     68  39  34 S18G28    30.11S
DUBUQUE        MOSUNNY   67  35  30 S23       30.19F
MONTICELLO *   SUNNY     70  39  32 S20G28    30.15F
OELWEIN *      SUNNY    N/A N/A N/A S22G30    30.12F
WATERLOO       MOSUNNY   72  40  31 S26G36    30.09F
$$

IAZ064-065-067-068-078-192100-
   EAST CENTRAL IOWA

CITY           SKY/WX    TMP DP  RH WIND       PRES   REMARKS
DAVENPORT      MOSUNNY   72  35  25 S10G22    30.22F
IOWA CITY      CLOUDY    73  44  35 S18       30.16F
MT. PLEASANT * PTSUNNY   77  36  22 S17G23    30.17F
MUSCATINE *    SUNNY     73  41  31 SE14G22   30.17F
QUAD CITIES    MOSUNNY   73  35  25 S10G20    30.19F
$$

IAZ062-063-075>077-085>089-095>099-192100-
   SOUTHEAST IOWA

CITY           SKY/WX    TMP DP  RH WIND       PRES   REMARKS
FAIRFIELD *    SUNNY     75  43  31 S21G26    30.15F
FORT MADISON * SUNNY     73  43  33 S10       30.19F
KEOKUK *       SUNNY     73  43  33 S10G21    30.17F
OSKALOOSA *      N/A     75  45  33 S23       30.13F
CENTERVILLE *  SUNNY     75  45  33 S17G23    30.14F
OTTUMWA        PTSUNNY   74  43  32 S22G29    30.13F
WASHINGTON *   SUNNY     75  41  29 S16G25    30.16F
$$

ABBREVIATIONS USED IN REMARKS
   TC - TEMPERATURES IN CELSIUS
  WCI - WIND CHILL INDEX
   HX - HEAT INDEX
  VSB - VISIBILITY
$$




USA.gov is the U.S. government's official web portal to all federal, state and local government web resources and services.